Time,TemperatureF,DewpointF,PressureIn,WindDirection,WindDirectionDegrees,WindSpeedMPH,WindSpeedGustMPH,Humidity,HourlyPrecipIn,Conditions,Clouds,dailyrainin,SolarRadiationWatts/m^2,SoftwareType,DateUTC
2013-04-05 00:03:00,36.0,35.0,-100.00,NNE,29,3.0,6.0,98,0.01,,,0.90,0.000000,,2013-04-05 04:03:00,
2013-04-05 00:33:00,37.0,37.0,-100.00,NNE,13,2.0,6.0,99,0.01,,,0.91,0.000000,,2013-04-05 04:33:00,
2013-04-05 00:43:00,37.0,37.0,-100.00,NNE,13,2.0,6.0,99,0.01,,,0.91,0.000000,,2013-04-05 04:43:00,
2013-04-05 00:52:00,37.0,37.0,-100.00,NNE,13,2.0,6.0,99,0.01,,,0.91,0.000000,,2013-04-05 04:52:00,
2013-04-05 01:02:00,37.0,37.0,-100.00,NNE,13,2.0,6.0,99,0.01,,,0.91,0.000000,,2013-04-05 05:02:00,
2013-04-05 01:32:00,37.0,36.0,-100.00,NNE,30,2.0,5.0,98,0.00,,,0.91,0.000000,,2013-04-05 05:32:00,
2013-04-05 01:42:00,37.0,36.0,-100.00,NNE,30,2.0,5.0,98,0.00,,,0.91,0.000000,,2013-04-05 05:42:00,
2013-04-05 01:53:00,37.0,36.0,-100.00,NNE,30,2.0,5.0,98,0.00,,,0.91,0.000000,,2013-04-05 05:53:00,
2013-04-05 02:02:00,37.0,36.0,-100.00,NNE,30,2.0,5.0,98,0.00,,,0.91,0.000000,,2013-04-05 06:02:00,
2013-04-05 03:23:00,37.0,37.0,-100.00,West,274,2.0,4.0,99,-99.99,,,0.91,0.000000,,2013-04-05 07:23:00,
2013-04-05 03:32:00,37.0,37.0,-100.00,West,274,2.0,4.0,99,-99.99,,,0.91,0.000000,,2013-04-05 07:32:00,
2013-04-05 03:42:00,37.0,37.0,-100.00,West,274,2.0,4.0,99,-99.99,,,0.91,0.000000,,2013-04-05 07:42:00,
2013-04-05 03:53:00,37.0,37.0,-100.00,West,274,2.0,4.0,99,-99.99,,,0.91,0.000000,,2013-04-05 07:53:00,
2013-04-05 04:03:00,37.0,37.0,-100.00,West,274,2.0,4.0,99,-99.99,,,0.91,0.000000,,2013-04-05 08:03:00,
2013-04-05 04:23:00,38.0,38.0,-100.00,NNW,338,3.0,5.0,99,0.00,,,0.91,0.000000,,2013-04-05 08:23:00,
2013-04-05 04:33:00,38.0,38.0,-100.00,NNW,338,3.0,5.0,99,0.00,,,0.91,0.000000,,2013-04-05 08:33:00,
2013-04-05 04:43:00,38.0,38.0,-100.00,NNW,338,3.0,5.0,99,0.00,,,0.91,0.000000,,2013-04-05 08:43:00,
2013-04-05 04:52:00,38.0,38.0,-100.00,NNW,338,3.0,5.0,99,0.00,,,0.91,0.000000,,2013-04-05 08:52:00,
2013-04-05 05:02:00,38.0,38.0,-100.00,NNW,338,3.0,5.0,99,0.00,,,0.91,0.000000,,2013-04-05 09:02:00,
2013-04-05 06:23:00,40.0,39.0,-100.00,NNE,21,3.0,6.0,97,-99.99,,,0.91,0.000000,,2013-04-05 10:23:00,
2013-04-05 06:33:00,40.0,39.0,-100.00,NNE,21,3.0,6.0,97,-99.99,,,0.91,0.000000,,2013-04-05 10:33:00,
2013-04-05 06:43:00,40.0,39.0,-100.00,NNE,21,3.0,6.0,97,-99.99,,,0.91,0.000000,,2013-04-05 10:43:00,
2013-04-05 06:53:00,40.0,39.0,-100.00,NNE,21,3.0,6.0,97,-99.99,,,0.91,0.000000,,2013-04-05 10:53:00,
2013-04-05 07:03:00,40.0,39.0,-100.00,NNE,21,3.0,6.0,97,-99.99,,,0.91,0.000000,,2013-04-05 11:03:00,
2013-04-05 07:33:00,42.0,40.0,-100.00,NNE,26,2.0,6.0,94,0.00,,,0.91,0.000000,,2013-04-05 11:33:00,
2013-04-05 07:42:00,42.0,40.0,-100.00,NNE,26,2.0,6.0,94,0.00,,,0.91,0.000000,,2013-04-05 11:42:00,
2013-04-05 07:52:00,42.0,40.0,-100.00,NNE,26,2.0,6.0,94,0.00,,,0.91,0.000000,,2013-04-05 11:52:00,
2013-04-05 08:02:00,42.0,40.0,-100.00,NNE,26,2.0,6.0,94,0.00,,,0.91,0.000000,,2013-04-05 12:02:00,
2013-04-05 08:32:00,42.0,41.0,-100.00,WSW,244,1.0,3.0,97,0.00,,,0.91,17.000000,,2013-04-05 12:32:00,
2013-04-05 08:42:00,42.0,41.0,-100.00,WSW,244,1.0,3.0,97,0.00,,,0.91,17.000000,,2013-04-05 12:42:00,
2013-04-05 08:52:00,42.0,41.0,-100.00,WSW,244,1.0,3.0,97,0.00,,,0.91,17.000000,,2013-04-05 12:52:00,
2013-04-05 09:02:00,42.0,41.0,-100.00,WSW,244,1.0,3.0,97,0.00,,,0.91,17.000000,,2013-04-05 13:02:00,
2013-04-05 09:23:00,44.0,42.0,-100.00,SW,230,1.0,3.0,94,0.00,,,0.91,53.000000,,2013-04-05 13:23:00,
2013-04-05 09:32:00,44.0,42.0,-100.00,SW,230,1.0,3.0,94,0.00,,,0.91,53.000000,,2013-04-05 13:32:00,
2013-04-05 09:43:00,44.0,42.0,-100.00,SW,230,1.0,3.0,94,0.00,,,0.91,53.000000,,2013-04-05 13:43:00,
2013-04-05 09:53:00,44.0,42.0,-100.00,SW,230,1.0,3.0,94,0.00,,,0.91,53.000000,,2013-04-05 13:53:00,
2013-04-05 10:03:00,44.0,42.0,-100.00,SW,230,1.0,3.0,94,0.00,,,0.91,53.000000,,2013-04-05 14:03:00,
2013-04-05 10:23:00,48.0,42.0,-100.00,NW,322,3.0,5.0,80,0.00,,,0.89,188.000000,,2013-04-05 14:23:00,
2013-04-05 10:37:00,48.0,42.0,-100.00,NW,322,3.0,5.0,80,0.00,,,0.89,188.000000,,2013-04-05 14:37:00,
2013-04-05 10:43:00,48.0,42.0,-100.00,NW,322,3.0,5.0,80,0.00,,,0.89,188.000000,,2013-04-05 14:43:00,
2013-04-05 10:54:00,48.0,42.0,-100.00,NW,322,3.0,5.0,80,0.00,,,0.89,188.000000,,2013-04-05 14:54:00,
2013-04-05 11:02:00,48.0,42.0,-100.00,NW,322,3.0,5.0,80,0.00,,,0.89,188.000000,,2013-04-05 15:02:00,
2013-04-05 11:34:00,52.0,44.0,-100.00,North,10,3.0,6.0,73,0.00,,,0.89,328.000000,,2013-04-05 15:34:00,
2013-04-05 11:43:00,52.0,44.0,-100.00,North,10,3.0,6.0,73,0.00,,,0.89,328.000000,,2013-04-05 15:43:00,
2013-04-05 11:55:00,52.0,44.0,-100.00,North,10,3.0,6.0,73,0.00,,,0.89,328.000000,,2013-04-05 15:55:00,
2013-04-05 12:03:00,52.0,44.0,-100.00,North,10,3.0,6.0,73,0.00,,,0.89,328.000000,,2013-04-05 16:03:00,
2013-04-05 12:33:00,56.0,41.0,-100.00,NNE,25,4.0,10.0,58,0.00,,,0.89,869.000000,,2013-04-05 16:33:00,
2013-04-05 12:43:00,56.0,41.0,-100.00,NNE,25,4.0,10.0,58,0.00,,,0.89,869.000000,,2013-04-05 16:43:00,
2013-04-05 12:53:00,56.0,41.0,-100.00,NNE,25,4.0,10.0,58,0.00,,,0.89,869.000000,,2013-04-05 16:53:00,
2013-04-05 13:03:00,56.0,41.0,-100.00,NNE,25,4.0,10.0,58,0.00,,,0.89,869.000000,,2013-04-05 17:03:00,
2013-04-05 13:33:00,59.0,42.0,-100.00,North,5,5.0,11.0,54,0.00,,,0.88,909.000000,,2013-04-05 17:33:00,
2013-04-05 13:46:00,59.0,42.0,-100.00,North,5,5.0,11.0,54,0.00,,,0.88,909.000000,,2013-04-05 17:46:00,
2013-04-05 13:53:00,59.0,42.0,-100.00,North,5,5.0,11.0,54,0.00,,,0.88,909.000000,,2013-04-05 17:53:00,
2013-04-05 14:02:00,59.0,42.0,-100.00,North,5,5.0,11.0,54,0.00,,,0.88,909.000000,,2013-04-05 18:02:00,
2013-04-05 14:34:00,62.0,42.0,-100.00,NW,325,5.0,11.0,47,0.00,,,0.82,999.000000,,2013-04-05 18:34:00,
2013-04-05 14:43:00,62.0,42.0,-100.00,NW,325,5.0,11.0,47,0.00,,,0.82,999.000000,,2013-04-05 18:43:00,
2013-04-05 14:53:00,62.0,42.0,-100.00,NW,325,5.0,11.0,47,0.00,,,0.82,999.000000,,2013-04-05 18:53:00,
2013-04-05 15:02:00,62.0,42.0,-100.00,NW,325,5.0,11.0,47,0.00,,,0.82,999.000000,,2013-04-05 19:02:00,
2013-04-05 15:33:00,64.0,34.0,-100.00,NNW,346,5.0,10.0,32,0.00,,,0.69,980.000000,,2013-04-05 19:33:00,
2013-04-05 15:43:00,64.0,34.0,-100.00,NNW,346,5.0,10.0,32,0.00,,,0.69,980.000000,,2013-04-05 19:43:00,
2013-04-05 15:53:00,64.0,34.0,-100.00,NNW,346,5.0,10.0,32,0.00,,,0.69,980.000000,,2013-04-05 19:53:00,
2013-04-05 16:02:00,64.0,34.0,-100.00,NNW,346,5.0,10.0,32,0.00,,,0.69,980.000000,,2013-04-05 20:02:00,
2013-04-05 16:33:00,65.0,31.0,-100.00,North,7,4.0,13.0,28,0.00,,,0.63,896.000000,,2013-04-05 20:33:00,
2013-04-05 16:43:00,65.0,31.0,-100.00,North,7,4.0,13.0,28,0.00,,,0.63,896.000000,,2013-04-05 20:43:00,
2013-04-05 16:53:00,65.0,31.0,-100.00,North,7,4.0,13.0,28,0.00,,,0.63,896.000000,,2013-04-05 20:53:00,
2013-04-05 17:02:00,65.0,31.0,-100.00,North,7,4.0,13.0,28,0.00,,,0.63,896.000000,,2013-04-05 21:02:00,
2013-04-05 17:34:00,65.0,31.0,-100.00,NNE,12,4.0,15.0,28,0.00,,,0.51,725.000000,,2013-04-05 21:34:00,
2013-04-05 17:44:00,65.0,31.0,-100.00,NNE,12,4.0,15.0,28,0.00,,,0.51,725.000000,,2013-04-05 21:44:00,
2013-04-05 17:55:00,65.0,31.0,-100.00,NNE,12,4.0,15.0,28,0.00,,,0.51,725.000000,,2013-04-05 21:55:00,
2013-04-05 18:03:00,65.0,31.0,-100.00,NNE,12,4.0,15.0,28,0.00,,,0.51,725.000000,,2013-04-05 22:03:00,
2013-04-05 18:23:00,64.0,30.0,-100.00,North,349,7.0,12.0,28,0.00,,,0.32,510.000000,,2013-04-05 22:23:00,
2013-04-05 18:44:00,64.0,30.0,-100.00,North,349,7.0,12.0,28,0.00,,,0.32,510.000000,,2013-04-05 22:44:00,
2013-04-05 18:53:00,64.0,30.0,-100.00,North,349,7.0,12.0,28,0.00,,,0.32,510.000000,,2013-04-05 22:53:00,
2013-04-05 19:03:00,64.0,30.0,-100.00,North,349,7.0,12.0,28,0.00,,,0.32,510.000000,,2013-04-05 23:03:00,
2013-04-05 19:33:00,62.0,32.0,-100.00,North,353,4.0,12.0,32,0.00,,,0.14,214.000000,,2013-04-05 23:33:00,
2013-04-05 19:43:00,62.0,32.0,-100.00,North,353,4.0,12.0,32,0.00,,,0.14,214.000000,,2013-04-05 23:43:00,
2013-04-05 19:53:00,62.0,32.0,-100.00,North,353,4.0,12.0,32,0.00,,,0.14,214.000000,,2013-04-05 23:53:00,
2013-04-05 20:03:00,62.0,32.0,-100.00,North,353,4.0,12.0,32,0.00,,,0.14,214.000000,,2013-04-06 00:03:00,
2013-04-05 20:33:00,57.0,30.0,-100.00,NNW,339,4.0,9.0,35,0.00,,,0.12,19.000000,,2013-04-06 00:33:00,
2013-04-05 20:43:00,57.0,30.0,-100.00,NNW,339,4.0,9.0,35,0.00,,,0.12,19.000000,,2013-04-06 00:43:00,
2013-04-05 20:53:00,57.0,30.0,-100.00,NNW,339,4.0,9.0,35,0.00,,,0.12,19.000000,,2013-04-06 00:53:00,
2013-04-05 21:02:00,57.0,30.0,-100.00,NNW,339,4.0,9.0,35,0.00,,,0.12,19.000000,,2013-04-06 01:02:00,
2013-04-05 21:23:00,54.0,35.0,-100.00,NNW,330,4.0,7.0,49,0.00,,,0.03,0.000000,,2013-04-06 01:23:00,
2013-04-05 21:33:00,54.0,35.0,-100.00,NNW,330,4.0,7.0,49,0.00,,,0.03,0.000000,,2013-04-06 01:33:00,
2013-04-05 21:43:00,54.0,35.0,-100.00,NNW,330,4.0,7.0,49,0.00,,,0.03,0.000000,,2013-04-06 01:43:00,
2013-04-05 21:53:00,54.0,35.0,-100.00,NNW,330,4.0,7.0,49,0.00,,,0.03,0.000000,,2013-04-06 01:53:00,
2013-04-05 22:02:00,54.0,35.0,-100.00,NNW,330,4.0,7.0,49,0.00,,,0.03,0.000000,,2013-04-06 02:02:00,
2013-04-05 22:23:00,53.0,29.0,-100.00,NNW,344,3.0,8.0,40,0.00,,,0.02,0.000000,,2013-04-06 02:23:00,
2013-04-05 22:33:00,53.0,29.0,-100.00,NNW,344,3.0,8.0,40,0.00,,,0.02,0.000000,,2013-04-06 02:33:00,
2013-04-05 22:43:00,53.0,29.0,-100.00,NNW,344,3.0,8.0,40,0.00,,,0.02,0.000000,,2013-04-06 02:43:00,
2013-04-05 22:53:00,53.0,29.0,-100.00,NNW,344,3.0,8.0,40,0.00,,,0.02,0.000000,,2013-04-06 02:53:00,
2013-04-05 23:03:00,53.0,29.0,-100.00,NNW,344,3.0,8.0,40,0.00,,,0.02,0.000000,,2013-04-06 03:03:00,
2013-04-05 23:34:00,49.0,32.0,-100.00,NNW,348,2.0,4.0,52,0.00,,,0.01,0.000000,,2013-04-06 03:34:00,
2013-04-05 23:43:00,49.0,32.0,-100.00,NNW,348,2.0,4.0,52,0.00,,,0.01,0.000000,,2013-04-06 03:43:00,
2013-04-05 23:55:00,49.0,32.0,-100.00,NNW,348,2.0,4.0,52,0.00,,,0.01,0.000000,,2013-04-06 03:55:00,